Regional Weather Roundup
Issued by NWS

Home | Current Version | Previous Version | Text Only | Print | Product List | Glossary Off
Versions: 1 2 3 4 5 6 7 8 9 10 11 12 13 14 15 16 17 18 19 20 21 22 23 24 25 26 27 28 29 30 31 32 33 34 35 36 37 38 39 40 41 42 43 44 45 46 47 48 49 50

000
ASUS43 KMKX 202300
RWRWI

WISCONSIN REGIONAL WEATHER ROUNDUP
NATIONAL WEATHER SERVICE MILWAUKEE/SULLIVAN WI
600 PM CDT THU JUL 20 2017

NOTE: "FAIR" INDICATES FEW OR NO CLOUDS BELOW 12,000 FEET WITH NO
SIGNIFICANT WEATHER AND/OR OBSTRUCTIONS TO VISIBILITY.

WIZ001-002-006>008-014>016-023>028-210000-
NORTHWEST WISCONSIN

CITY           SKY/WX    TMP DP  RH WIND       PRES   REMARKS
SUPERIOR ARPT  NOT AVBL
ASHLAND        SUNNY     83  64  52 W7        29.96F HX  84
HAYWARD        SUNNY     83  59  44 VRB6      29.99F HX  83
SIREN          SUNNY     85  62  45 W6        30.00F HX  85
CUMBERLAND     SUNNY     81  63  54 W10       30.01S HX  82
RICE LAKE      SUNNY     83  66  54 W6        30.02S HX  85
CHETEK         SUNNY     84  68  58 W9        30.00F HX  86
LADYSMITH      SUNNY     85  63  47 W10       30.02S HX  85
EAU CLAIRE     NOT AVBL
MENOMONIE      MOSUNNY   83  66  57 W8        30.00S HX  85
NEW RICHMOND   SUNNY     84  62  47 W6        30.01F HX  85
OSCEOLA        SUNNY     85  64  48 SW8       30.03F HX  86
$$

WIZ003>005-009-010-017-018-210000-
NORTH CENTRAL WISCONSIN

CITY           SKY/WX    TMP DP  RH WIND       PRES   REMARKS
MANITOWISH WTR SUNNY     82  56  42 NW10      29.99S HX  81
ARBOR VITAE    SUNNY     83  56  39 NW8       29.98F HX  82
WOODRUFF       SUNNY     83  56  39 NW8       29.98F HX  82
RHINELANDER    SUNNY     84  57  39 NW5       29.99S HX  83
EAGLE RIVER    SUNNY     82  52  35 NW12G17   29.98S HX  81
LAND O LAKES   SUNNY     82  51  33 NW8       30.00S HX  81
PHILLIPS       SUNNY     82  62  50 NW5       29.99S HX  83
TOMAHAWK         N/A     82  59  45 NW8       29.99F HX  82
MEDFORD        SUNNY     82  63  52 W9        30.00S HX  83
MERRILL        SUNNY     84  64  50 NW8       29.98F HX  85
$$

WIZ029-030-035-036-043>047-210000-
CENTRAL WISCONSIN

CITY           SKY/WX    TMP DP  RH WIND       PRES   REMARKS
WAUSAU         SUNNY     85  61  44 W12       29.96S HX  85
MOSINEE        MOSUNNY   82  63  51 W10       29.99F HX  83
MARSHFIELD     SUNNY     82  63  52 W10       29.99S HX  83
STEVENS POINT  SUNNY     83  64  52 NW7       29.98S HX  84
WAUPACA        MOSUNNY   88  62  41 W8        29.96S HX  88
WAUTOMA        CLOUDY    82  72  71 W6        29.97S HX  87
WISC RAPIDS    MOSUNNY   86  65  49 N9        29.99S HX  88
CAMP DOUGLAS   NOT AVBL
$$

WIZ011>013-019>022-031-037>040-048>050-210000-
NORTHEAST WISCONSIN

CITY           SKY/WX    TMP DP  RH WIND       PRES   REMARKS
ANTIGO         SUNNY     82  62  49 NW9G17    29.99S HX  83
SHAWANO        SUNNY     89  59  36 NW6       29.94S HX  88
OCONTO         SUNNY     86  62  43 NW5       29.92S HX  86
STURGEON BAY     N/A     84  66  54 CALM      29.93S HX  86
GREEN BAY      SUNNY     86  70  58 W7        29.93S HX  90
MANITOWOC      NOT AVBL
APPLETON       MOSUNNY   84  61  45 NW10      29.94S HX  84
CLINTONVILLE   SUNNY     86  59  39 NW9       29.94F HX  85
OSHKOSH        MOSUNNY   83  69  62 W5        29.95S HX  86
$$

WIZ032>034-041-042-053>061-210000-
SOUTHWEST WISCONSIN

CITY           SKY/WX    TMP DP  RH WIND       PRES   REMARKS
LA CROSSE      MOSUNNY   85  72  65 NW9       29.97F HX  91
SPARTA         CLOUDY    81  71  73 CALM      29.99F HX  85
VIROQUA        MOSUNNY   81  74  77 N6        30.00F HX  87
BOSCOBEL       CLOUDY    88  70  55 N3        29.96F HX  93
PRAIRIE DU CHI MOSUNNY   86  69  56 NW6       29.96F HX  90
PLATTEVILLE    SUNNY     84  76  76 N3        29.99S HX  94
$$

WIZ056-057-062-063-064-067-068-210000-
SOUTH CENTRAL WISCONSIN

CITY           SKY/WX    TMP DP  RH WIND       PRES   REMARKS
REEDSBURG      CLOUDY    82  70  66 N7        29.97S HX  86
BARABOO/DELLS  CLOUDY    83  67  58 NW6       29.97S HX  86
LONE ROCK      NOT AVBL
MINERAL POINT  SUNNY     86  73  66 N5        29.99S HX  93
MADISON        PTSUNNY   85  73  67 CALM      29.96S HX  91
MIDDLETON      MOSUNNY   84  71  66 CALM      29.97F HX  89
WATERTOWN      MOSUNNY   83  74  73 CALM      29.96S HX  90
MONROE         MOSUNNY   86  72  62 N6        29.98S HX  92
JANESVILLE     NOT AVBL
$$

WIZ051-052-058>065-066-070>072-210000-
SOUTHEAST WISCONSIN

CITY           SKY/WX    TMP DP  RH WIND       PRES   REMARKS
MILWAUKEE      MOSUNNY   78  69  73 SE8       29.96R HX  80
WAUKESHA       MOSUNNY   82  68  61 NW10      29.98R HX  85
MILWAUKEE/TIMM SUNNY     82  66  57 SE6       29.96S HX  85
RACINE         SUNNY     79  70  74 SE7       29.97F HX  82
KENOSHA        SUNNY     79  69  71 E7        29.96F HX  81
FOND DU LAC    CLOUDY    84  67  56 NW10      29.95S HX  86
SHEBOYGAN      MOSUNNY   84  71  65 W7        29.94S HX  89
WEST BEND      SUNNY     84  68  58 NW8       29.95F HX  87
JUNEAU         MOSUNNY   82  71  68 CALM      29.96F HX  86
$$

LSZ147-162-210000-
LAKE SUPERIOR

STATION/POSITION TIME  TEMP    WIND        PRES    WAVE
                       AIR SEA DIR/SP/G            HT/PER
                 (UTC) (F)     (DEG/KT/KT) (MB)    (FT/S)
W MID LAKE BUOY  2150   54 48  230/  8/  8 1013.8F   1/ 3
DEVILS ISLAND    2200   72     230/ 11/ 14 1013.6F
PORT WING        2100   81     260/  7/ 11   N/A
SAXON HARBOR     2240   86      20/  1/  2 1013.9F
$$

LMZ867-665-643>646-210000-
LAKE MICHIGAN

STATION/POSITION TIME  TEMP    WIND        PRES    WAVE
                       AIR SEA DIR/SP/G            HT/PER
                 (UTC) (F)     (DEG/KT/KT) (MB)    (FT/S)
CHAMBERS ISLAND  2230   84     160/  3/  5 1012.2F
S GREEN BAY BUOY 2230   79 74  170/  4/  4 1013.1S
N MID LAKE BUOY  2150   69 66  190/ 10/ 10 1013.2F   2/ 6
NORTHPORT PIER   2240   79     160/  5/  7 1012.2S
KEWAUNEE LAKESHO 2230   71     180/  7/  9 1013.3R
SHEBOYGAN LAKESH 2200   70     160/ 16/ 17 1013.3S
PORT WASHINGTON  2230   74     170/  5/  8 1014.9F
ATWATER BUOY     2109   70 69  170/  8/ 10 1014.8F
MILWAUKEE LAKESH 2230   70     150/  8/  9   N/A
S MID LAKE BUOY  2150   72 72  110/  4/  4 1014.5F   2/ 5
KENOSHA   LAKESH 2200   79     170/  4/  6 1014.2
$$

TC  - TEMPERATURE IN CELSIUS
VSB - VISIBILITY IN STATUTE MILES
WCI - WIND CHILL INDEX
HX  - HEAT INDEX





USA.gov is the U.S. government's official web portal to all federal, state and local government web resources and services.